Regional Weather Roundup
Issued by NWS

Home | Current Version | Previous Version | Graphics & Text | Print | Product List | Glossary On
Versions: 1 2 3 4 5 6 7 8 9 10 11 12 13 14 15 16 17 18 19 20 21 22 23 24 25 26 27 28 29 30 31 32 33 34 35 36 37 38 39 40 41 42 43 44 45 46 47 48 49 50
000
ASUS43 KDTX 300710
RWRMI
MICHIGAN HOURLY REGIONAL WEATHER ROUNDUP
NATIONAL WEATHER SERVICE DETROIT/PONTIAC MI
300 AM EDT SAT AUG 30 2014

NOTE: "FAIR" INDICATES FEW OR NO CLOUDS BELOW 12,000 FEET WITH NO
SIGNIFICANT WEATHER AND/OR OBSTRUCTION TO VISIBILITY.

MIZ047>049-052>055-059>063-066>070-074>076-081>083-300800-
SOUTHEAST LOWER MICHIGAN

CITY           SKY/WX    TMP DP  RH WIND       PRES   REMARKS
ADRIAN         PTCLDY    68  62  81 SW5       30.00F
ALMA           PTCLDY    68  64  86 S5        29.94F
ANN ARBOR      PTCLDY    68  61  78 CALM      29.99F
BAD AXE        MOCLDY    64  60  86 S9        29.98F
CARO           PTCLDY    66  60  80 SE6       29.96F
DETROIT CITY   PTCLDY    72  63  73 S7        30.00F
DETROIT        MOCLDY    72  63  73 SE6       29.99F
FLINT          MOCLDY    71  61  70 S8        29.97F
GROSSE ILE     PTCLDY    73  66  78 S10       29.98F
HILLSDALE      MOCLDY    70  65  84 S6        29.99F
HOWELL         MOCLDY    69  62  80 S9        29.98F

CITY           SKY/WX    TMP DP  RH WIND       PRES   REMARKS
JACKSON        MOCLDY    72  63  73 S8        29.97F
LAMBERTVILLE   CLEAR     72  61  68 S7        30.00F
LANSING        CLOUDY    69  62  78 S7        29.96F
LAPEER         FAIR      68  60  75 S6        29.99S
MASON          MOCLDY    69  62  80 S8        29.96F
MONROE         PTCLDY    72  63  73 S7        29.98F
MT. CLEMENS    MOCLDY    69  64  86 S6        29.99F
PONTIAC        PTCLDY    68  62  81 SE5       29.99F
PORT HOPE        N/A     66  58  75 VRB6      29.96F
PORT HURON     MOCLDY    66  63  88 S5        30.00F
TRI CITIES     MOCLDY    70  60  70 S8        29.96S
TROY           PTCLDY    70  63  78 CALM      30.01F
SAGINAW HB     PTCLDY    64  59  82 S3        29.95S
$$
MIZ043>046-050>051-056>058-064>065-071>073-077>080-300800-
SOUTHWEST LOWER MICHIGAN

CITY           SKY/WX    TMP DP  RH WIND       PRES   REMARKS
BATTLE CREEK   MOCLDY    72  65  78 S9        29.95F
BENTON HARBOR  PTCLDY    71  67  87 S10       29.89F
BIG RAPIDS     MOCLDY    70  68  94 S9        29.90F
COLDWATER      PTCLDY    73  66  77 S7        29.96F
FREMONT        PTSUNNY   72  66  82 S6        29.88S
HOLLAND        PTCLDY    71  66  84 SE9       29.90F
GRAND RAPIDS   MOCLDY    72  71  97 S9        29.91F
IONIA          PTSUNNY   70  66  89 S9        29.92F
KALAMAZOO      PTCLDY    72  67  84 S6        29.93F
LUDINGTON      MOCLDY    74  70  86 S7        29.85F
MARSHALL       MOCLDY    70  64  81 SE7       29.95F
MOUNT PLEASANT CLEAR     68  63  83 SE6       29.93F
MUSKEGON       MOCLDY    75  65  70 S13       29.87F
SOUTH HAVEN    PTCLDY    72  68  88 S6        29.90F
$$
MIZ016>042-300800-
NORTHERN LOWER MICHIGAN

CITY           SKY/WX    TMP DP  RH WIND       PRES   REMARKS
ALPENA         TSTM      65  65 100 S14       29.91F
BEAVER ISLAND  CLOUDY    71  68  92 S9        29.83S
BELLAIRE       PTCLDY    72  66  81 S6        29.85S
CADILLAC       MOCLDY    71  67  89 S8        29.90F
CHARLEVOIX     MOCLDY    73  68  86 S9        29.87S
FRANKFORT      MOCLDY    75  67  77 S7        29.83F
GAYLORD        MOCLDY    66  64  93 S13       29.90F
GRAYLING       PTCLDY    69  65  88 S5        29.92F
HARBOR SPRINGS MOCLDY    71  67  87 CALM      29.86S
HOUGHTON LAKE  PTCLDY    67  63  87 S12       29.93F
MANISTEE       MOCLDY    73  66  78 S6        29.85F
OSCODA         CLOUDY    67  60  78 S5        29.94F
PELLSTON       MOCLDY    69  66  90 E6        29.86F
TRAVERSE CITY  MOCLDY    74  67  78 VRB5      29.83F
$$
MIZ007>008-015-300800-
EASTERN UPPER MICHIGAN

CITY           SKY/WX    TMP DP  RH WIND       PRES   REMARKS
KINROSS        MOCLDY    66  66 100 NW12      29.87R
MACKINAC ISLAN CLOUDY    67  65  96 S10       29.84F
NEWBERRY       CLOUDY    65  65 100 S7        29.83F FOG
S. S. MARIE    LGT RAIN  64  63  96 E5        29.86R FOG
MUNISING         N/A     68  65  90 S6        29.79F
$$
MIZ004>006-011>014-085-300800-
CENTRAL UPPER MICHIGAN

CITY           SKY/WX    TMP DP  RH WIND       PRES   REMARKS
MANISTIQUE     CLOUDY    68  67  98 SW12      29.81F FOG
ESCANABA       CLOUDY    66  63  88 W5        29.81R THUNDER
MENOMINEE      CLOUDY    68  64  88 N3        29.78F
SAWYER-GWINN   CLOUDY    64  63  97 S8        29.82F
$$
MIZ001>003-009>011-084-300800-
WESTERN UPPER MICHIGAN

CITY           SKY/WX    TMP DP  RH WIND       PRES   REMARKS
IRON MOUNTAIN  LGT RAIN  65  64  97 CALM      29.80F
HOUGHTON       CLOUDY    63  61  93 NW5       29.79R FOG
COPPER HARBOR    N/A     58  56  93 N7        29.78R
$$

ABBREVIATIONS USED IN REMARKS
   TC - TEMPERATURE IN CELSIUS
  WCI - WIND CHILL INDEX
   HX - HEAT INDEX
  VSB - VISIBILITY



USA.gov is the U.S. government's official web portal to all federal, state and local government web resources and services.